FW2402 Weather Reports


time (UTC)temp
C
wind
direction
speed
KPH
gust
KPH
rain 1hr
cm
rain 24hr
cm
rain mn
cm
humidity
%
barometer
mb
20260901095024 24 0 0.0 3.2 0.00 0.38 0.00 97 1015.1
20260901094544 24 0 0.0 6.4 0.00 0.38 0.00 97 1015.0
20260901094022 24 29 0.0 6.4 0.00 0.38 0.00 97 1015.1
20260901093527 24 44 0.0 6.4 0.00 0.38 0.00 97 1015.0
20260901093043 24 17 1.6 4.8 0.00 0.38 0.00 97 1014.9
20260901092518 24 38 0.0 3.2 0.00 0.38 0.00 97 1014.8
20260901092018 24 0 0.0 1.6 0.00 0.38 0.00 97 1014.7
20260901091541 23 0 0.0 1.6 0.00 0.38 0.00 97 1014.8
20260901091019 23 0 0.0 1.6 0.00 0.38 0.00 97 1014.8
20260901090519 23 0 0.0 1.6 0.00 0.38 0.00 97 1014.9
20260901090043 23 0 0.0 1.6 0.00 0.38 0.00 97 1014.9
20260901085525 23 0 0.0 1.6 0.00 0.38 0.00 97 1014.9
20260901085024 23 0 0.0 3.2 0.00 0.38 0.00 97 1014.9
20260901084542 23 0 0.0 3.2 0.00 0.38 0.00 97 1014.9
20260901084024 23 0 0.0 1.6 0.00 0.38 0.00 97 1014.9
20260901083519 23 0 0.0 0.0 0.00 0.38 0.00 97 1014.9
20260901083042 23 0 0.0 0.0 0.00 0.38 0.00 97 1014.8
20260901082518 23 0 0.0 1.6 0.00 0.38 0.00 97 1014.8
20260901082101 23 0 0.0 1.6 0.00 0.38 0.00 97 1014.8
20260901081540 23 0 0.0 1.6 0.00 0.38 0.00 97 1014.9
20260901081025 23 0 0.0 0.0 0.00 0.38 0.00 97 1014.8
20260901080525 23 0 0.0 0.0 0.00 0.38 0.00 97 1014.7
20260901080045 23 0 0.0 0.0 0.00 0.38 0.00 97 1014.8
20260901075525 23 0 0.0 0.0 0.00 0.38 0.00 97 1014.9
20260901075024 22 0 0.0 0.0 0.00 0.38 0.00 97 1014.9
20260901074541 22 0 0.0 0.0 0.00 0.38 0.00 97 1014.9
20260901074024 22 0 0.0 0.0 0.00 0.38 0.00 97 1014.9
20260901073524 22 0 0.0 0.0 0.00 0.38 0.00 97 1014.9
20260901073042 22 0 0.0 0.0 0.00 0.38 0.00 97 1014.9
20260901072524 22 0 0.0 0.0 0.00 0.38 0.00 97 1015.0
20260901072024 22 0 0.0 0.0 0.00 0.38 0.00 97 1014.9
20260901071540 22 0 0.0 0.0 0.00 0.38 0.00 97 1015.0
20260901071025 22 0 0.0 1.6 0.00 0.38 0.00 97 1015.0
20260901070526 22 0 0.0 1.6 0.00 0.38 0.00 97 1015.1
20260901070044 22 0 0.0 0.0 0.00 0.38 0.00 97 1015.3
20260901065525 22 0 0.0 1.6 0.00 0.38 0.00 97 1015.3
20260901065021 22 0 0.0 1.6 0.00 0.38 0.00 97 1015.5
20260901064543 22 0 0.0 1.6 0.00 0.38 0.00 97 1015.5
20260901064022 22 0 0.0 0.0 0.00 0.38 0.00 97 1015.7
20260901063517 22 0 0.0 0.0 0.00 0.38 0.00 97 1015.8
20260901063041 22 0 0.0 0.0 0.00 0.38 0.00 97 1015.7
20260901062518 22 0 0.0 0.0 0.00 0.38 0.00 97 1015.9
20260901062025 22 0 0.0 0.0 0.00 0.38 0.00 97 1016.0
20260901061541 22 0 0.0 0.0 0.00 0.38 0.00 96 1016.2
20260901061023 22 0 0.0 0.0 0.00 0.38 0.00 96 1016.3
20260901060525 22 0 0.0 0.0 0.00 0.38 0.00 97 1016.4
20260901060043 22 0 0.0 0.0 0.00 0.38 0.00 96 1016.4
20260901055524 22 0 0.0 0.0 0.00 0.38 0.00 97 1016.5
20260901055021 22 0 0.0 1.6 0.00 0.38 0.00 97 1016.4
20260901054544 22 0 0.0 3.2 0.00 0.38 0.00 96 1016.4
20260901054020 22 0 0.0 3.2 0.00 0.38 0.00 96 1016.5
20260901053520 22 290 1.6 3.2 0.00 0.38 0.00 96 1016.6
20260901053104 22 290 0.0 3.2 0.00 0.38 0.00 97 1016.6
20260901052527 22 0 0.0 0.0 0.00 0.38 0.00 96 1016.6
20260901052023 22 0 0.0 0.0 0.00 0.38 0.00 97 1016.7
20260901051559 22 0 0.0 0.0 0.00 0.38 0.00 96 1016.7
20260901051023 22 0 0.0 0.0 0.00 0.38 0.00 96 1016.6
20260901050518 22 0 0.0 0.0 0.00 0.38 0.00 96 1016.6
20260901050042 22 0 0.0 0.0 0.00 0.38 0.00 96 1016.6
20260901045521 22 0 0.0 0.0 0.00 0.38 0.00 96 1016.7
20260901045027 22 0 0.0 0.0 0.00 0.38 0.00 96 1016.8
20260901044553 22 0 0.0 0.0 0.00 0.38 0.00 96 1016.8
20260901044025 22 0 0.0 0.0 0.00 0.38 0.00 96 1016.9
20260901043523 22 0 0.0 0.0 0.00 0.38 0.00 96 1016.9
20260901043044 22 0 0.0 0.0 0.00 0.38 0.00 96 1017.1
20260901042521 23 0 0.0 0.0 0.00 0.38 0.00 96 1017.0
20260901042020 23 0 0.0 0.0 0.00 0.38 0.00 96 1017.1
20260901041541 22 0 0.0 0.0 0.00 0.38 0.00 96 1017.1
20260901041021 23 0 0.0 0.0 0.00 0.38 0.00 96 1017.1
20260901040525 23 0 0.0 0.0 0.00 0.38 0.00 96 1017.0
20260901040108 23 0 0.0 0.0 0.00 0.38 0.00 96 1017.1
20260901035529 23 0 0.0 0.0 0.00 0.38 0.38 96 1017.1
20260901035023 23 0 0.0 0.0 0.00 0.38 0.38 96 1017.2
20260901034559 23 0 0.0 0.0 0.00 0.38 0.38 96 1017.0
20260901034022 23 0 0.0 0.0 0.00 0.38 0.38 96 1017.0
20260901033520 23 0 0.0 0.0 0.00 0.38 0.38 96 1017.0
20260901033042 23 0 0.0 0.0 0.00 0.38 0.38 96 1017.1
20260901032525 23 0 0.0 0.0 0.00 0.38 0.38 96 1017.2
20260901032025 23 0 0.0 0.0 0.00 0.38 0.38 96 1017.1
20260901031543 23 0 0.0 0.0 0.00 0.38 0.38 96 1017.1
20260901031023 23 0 0.0 0.0 0.00 0.38 0.38 96 1017.1
20260901030523 23 0 0.0 0.0 0.00 0.38 0.38 96 1017.2
20260901030042 23 0 0.0 0.0 0.00 0.38 0.38 96 1017.2
20260901025524 23 0 0.0 0.0 0.00 0.38 0.38 96 1017.3
20260901025021 23 0 0.0 0.0 0.00 0.38 0.38 96 1017.3
20260901024545 23 0 0.0 0.0 0.00 0.38 0.38 96 1017.3
20260901024028 23 0 0.0 0.0 0.00 0.38 0.38 96 1017.3
20260901023525 23 0 0.0 0.0 0.00 0.38 0.38 96 1017.2
20260901023105 23 0 0.0 0.0 0.00 0.38 0.38 96 1017.2
20260901022524 23 0 0.0 0.0 0.00 0.38 0.38 96 1017.1
20260901022023 23 0 0.0 0.0 0.00 0.38 0.38 96 1017.0
20260901021552 23 0 0.0 0.0 0.00 0.38 0.38 96 1017.0
20260901021026 23 0 0.0 0.0 0.00 0.38 0.38 95 1017.0
20260901020525 23 0 0.0 4.8 0.00 0.38 0.38 95 1016.8
20260901020050 23 0 0.0 4.8 0.00 0.38 0.38 95 1016.7
20260901015526 23 290 1.6 4.8 0.00 0.38 0.38 95 1016.7
20260901015026 23 36 0.0 1.6 0.00 0.38 0.38 95 1016.6
20260901014554 23 0 0.0 0.0 0.00 0.38 0.38 95 1016.6
20260901014024 23 0 0.0 0.0 0.00 0.38 0.38 95 1016.4
20260901013524 23 0 0.0 0.0 0.00 0.38 0.38 95 1016.3
20260901013045 23 0 0.0 0.0 0.00 0.38 0.38 95 1016.3
20260901012525 23 0 0.0 0.0 0.00 0.38 0.38 95 1016.3
20260901012025 23 0 0.0 0.0 0.00 0.38 0.38 95 1016.1
20260901011549 23 0 0.0 0.0 0.00 0.38 0.38 95 1016.1
20260901011025 23 0 0.0 0.0 0.00 0.38 0.38 95 1016.0
20260901010526 23 0 0.0 0.0 0.00 0.38 0.38 95 1016.0
20260901010045 23 0 0.0 4.8 0.00 0.38 0.38 95 1016.1
20260901005530 23 0 0.0 4.8 0.00 0.38 0.38 94 1015.9
20260901005028 23 36 1.6 4.8 0.00 0.38 0.38 94 1015.9
20260901004558 23 90 1.6 4.8 0.00 0.38 0.38 94 1015.8
20260901004025 24 90 0.0 1.6 0.00 0.38 0.38 94 1015.8
20260901003526 24 0 0.0 0.0 0.00 0.38 0.38 94 1015.8
20260901003044 23 0 0.0 0.0 0.00 0.38 0.38 94 1015.8
20260901002526 23 0 0.0 0.0 0.00 0.38 0.38 94 1015.8
20260901002024 23 0 0.0 0.0 0.00 0.38 0.38 94 1015.8
20260901001542 23 0 0.0 0.0 0.00 0.38 0.38 94 1015.9
20260901001026 24 0 0.0 0.0 0.00 0.38 0.38 93 1015.9
20260901000525 24 0 0.0 4.8 0.00 0.38 0.38 93 1015.7
20260901000049 24 0 0.0 6.4 0.00 0.38 0.38 93 1015.6
20260831235525 24 90 1.6 6.4 0.00 0.38 0.38 93 1015.6
20260831235026 24 79 1.6 6.4 0.00 0.38 0.38 93 1015.5
20260831234545 24 0 0.0 3.2 0.00 0.38 0.38 93 1015.6
20260831234024 25 86 0.0 3.2 0.00 0.38 0.38 92 1015.6
20260831233524 25 0 0.0 4.8 0.00 0.38 0.38 93 1015.6
20260831233042 25 90 0.0 6.4 0.00 0.38 0.38 93 1015.6
20260831232535 24 110 1.6 6.4 0.00 0.38 0.38 93 1015.7
20260831232025 24 92 3.2 6.4 0.00 0.38 0.38 92 1015.7
20260831231544 25 118 3.2 6.4 0.00 0.38 0.38 92 1015.7
20260831231025 25 83 3.2 8.0 0.00 0.38 0.38 92 1015.6
20260831230529 25 81 3.2 11.3 0.00 0.38 0.38 92 1015.6
20260831230046 25 76 3.2 11.3 0.00 0.38 0.38 93 1015.7
20260831225523 25 119 3.2 9.7 0.00 0.38 0.38 92 1015.6
20260831225026 25 101 3.2 12.9 0.00 0.38 0.38 92 1015.6
20260831224541 25 73 4.8 12.9 0.03 0.38 0.38 92 1015.5
20260831224025 25 57 6.4 14.5 0.03 0.38 0.38 93 1015.4
20260831223530 24 90 8.0 17.7 0.05 0.38 0.38 93 1015.5
20260831223042 24 85 9.7 17.7 0.10 0.38 0.38 93 1015.5
20260831222524 24 78 8.0 19.3 0.10 0.38 0.38 93 1015.7
20260831222026 24 68 8.0 20.9 0.13 0.38 0.38 93 1015.7
20260831221556 24 58 12.9 22.5 0.15 0.38 0.38 94 1015.5
20260831221028 25 85 11.3 22.5 0.18 0.38 0.38 94 1015.6
20260831220520 25 86 9.7 17.7 0.20 0.38 0.38 94 1015.6
20260831220057 25 60 8.0 14.5 0.23 0.38 0.38 94 1015.6
20260831215519 25 115 4.8 14.5 0.23 0.38 0.38 94 1015.7
20260831215026 25 89 8.0 17.7 0.25 0.38 0.38 94 1015.8
20260831214549 25 96 4.8 17.7 0.25 0.36 0.36 94 1015.9
20260831214026 25 89 8.0 17.7 0.25 0.33 0.33 94 1015.9
20260831213524 25 85 8.0 14.5 0.23 0.30 0.30 94 1016.1
20260831213047 25 111 4.8 12.9 0.23 0.28 0.28 94 1016.1
20260831212526 24 107 4.8 12.9 0.23 0.28 0.28 94 1016.0
20260831212024 24 98 4.8 12.9 0.25 0.25 0.25 94 1016.0
20260831211542 24 106 4.8 12.9 0.23 0.23 0.23 94 1015.9
20260831211022 24 61 6.4 11.3 0.20 0.20 0.20 94 1015.9
20260831210519 24 64 6.4 11.3 0.18 0.18 0.18 94 1015.8
20260831210042 24 89 4.8 11.3 0.15 0.15 0.15 94 1015.8
20260831205527 24 66 4.8 11.3 0.15 0.15 0.15 94 1015.9
20260831205026 24 88 4.8 12.9 0.10 0.10 0.10 94 1016.1
20260831204554 24 78 4.8 12.9 0.10 0.10 0.10 93 1016.1
20260831204026 24 63 6.4 12.9 0.08 0.08 0.08 93 1016.2
20260831203523 24 66 6.4 16.1 0.08 0.08 0.08 93 1016.2
20260831203045 24 85 8.0 16.1 0.05 0.05 0.05 92 1016.2
20260831202521 25 57 8.0 14.5 0.05 0.05 0.05 91 1016.3
20260831202027 25 63 3.2 19.3 0.00 0.00 0.00 91 1016.4
20260831201542 25 89 6.4 19.3 0.00 0.00 0.00 90 1016.4
20260831201023 25 118 9.7 19.3 0.00 0.00 0.00 89 1016.3
20260831200526 25 105 11.3 25.7 0.00 0.00 0.00 89 1016.3
20260831200054 25 84 12.9 29.0 0.00 0.00 0.00 89 1016.2
20260831195528 26 91 16.1 37.0 0.00 0.00 0.00 88 1016.1
20260831195025 26 86 17.7 40.2 0.00 0.00 0.00 87 1016.0
20260831194544 27 45 24.1 40.2 0.00 0.00 0.00 84 1016.0
20260831194025 28 57 17.7 35.4 0.00 0.00 0.00 79 1015.9
20260831193519 30 69 14.5 29.0 0.00 0.00 0.00 75 1015.7
20260831193044 31 76 11.3 20.9 0.00 0.00 0.00 71 1015.5
20260831192521 32 309 1.6 6.4 0.00 0.00 0.00 70 1015.2
20260831192026 33 313 1.6 8.0 0.00 0.00 0.00 67 1015.1
20260831191538 33 257 1.6 9.7 0.00 0.00 0.00 67 1015.1
20260831191021 32 36 3.2 12.9 0.00 0.00 0.00 65 1015.2
20260831190525 32 256 3.2 12.9 0.00 0.00 0.00 70 1015.3
20260831190057 32 256 4.8 11.3 0.00 0.00 0.00 67 1015.3
20260831185525 32 275 3.2 8.0 0.00 0.10 0.00 70 1015.3
20260831185025 31 0 0.0 8.0 0.00 0.10 0.00 72 1015.3
20260831184543 32 319 0.0 8.0 0.00 0.10 0.00 70 1015.5
20260831184020 32 301 0.0 4.8 0.00 0.10 0.00 72 1015.4
20260831183523 30 0 0.0 9.7 0.00 0.10 0.00 73 1015.5
20260831183041 31 0 0.0 9.7 0.00 0.10 0.00 73 1015.5
20260831182520 32 32 4.8 9.7 0.00 0.10 0.00 66 1015.6
20260831182021 32 294 1.6 6.4 0.00 0.10 0.00 68 1015.7
20260831181540 31 0 0.0 6.4 0.00 0.10 0.00 69 1015.8
20260831181025 32 123 1.6 6.4 0.00 0.10 0.00 71 1015.9
20260831180525 32 0 1.6 6.4 0.00 0.10 0.00 67 1016.0
20260831180050 31 270 1.6 6.4 0.00 0.10 0.00 71 1016.0
20260831175524 31 140 1.6 11.3 0.00 0.10 0.00 74 1016.0
20260831175024 31 281 6.4 11.3 0.00 0.10 0.00 67 1016.1
20260831174546 31 226 1.6 12.9 0.00 0.10 0.00 68 1016.2
20260831174022 32 39 4.8 12.9 0.00 0.10 0.00 70 1016.3
20260831173521 31 261 1.6 6.4 0.00 0.10 0.00 71 1016.3
20260831173041 31 302 0.0 6.4 0.00 0.10 0.00 73 1016.4
20260831172525 32 0 1.6 6.4 0.00 0.10 0.00 67 1016.6
20260831172025 32 55 0.0 8.0 0.00 0.10 0.00 70 1016.5
20260831171552 31 300 1.6 8.0 0.00 0.10 0.00 67 1016.5
20260831171025 31 0 1.6 11.3 0.00 0.10 0.00 70 1016.7
20260831170524 30 274 3.2 11.3 0.00 0.10 0.00 72 1016.8
20260831170043 31 281 1.6 8.0 0.00 0.10 0.00 73 1016.9
20260831165523 31 53 3.2 9.7 0.00 0.10 0.00 73 1017.0
20260831165023 30 72 4.8 9.7 0.00 0.10 0.00 73 1017.1
20260831164555 30 69 0.0 6.4 0.00 0.10 0.00 79 1017.2
20260831164024 29 294 3.2 4.8 0.00 0.10 0.00 75 1017.2
20260831163526 29 0 0.0 4.8 0.00 0.10 0.00 75 1017.2
20260831163052 31 0 0.0 4.8 0.00 0.10 0.00 72 1017.2
20260831162525 31 0 0.0 4.8 0.00 0.10 0.00 79 1017.4
20260831162026 30 0 0.0 4.8 0.00 0.10 0.00 75 1017.4
20260831161545 30 0 0.0 6.4 0.00 0.10 0.00 76 1017.4
20260831161023 30 0 1.6 9.7 0.00 0.10 0.00 75 1017.4
20260831160527 30 0 1.6 11.3 0.00 0.10 0.00 76 1017.5
20260831160047 30 63 4.8 11.3 0.00 0.10 0.00 74 1017.5
20260831155525 30 61 0.0 11.3 0.00 0.10 0.00 76 1017.4
20260831155026 30 93 4.8 11.3 0.00 0.10 0.00 75 1017.4
20260831154608 30 84 1.6 11.3 0.00 0.10 0.00 78 1017.5
20260831154028 28 275 3.2 4.8 0.00 0.10 0.00 79 1017.5
20260831153525 28 255 0.0 6.4 0.00 0.10 0.00 81 1017.6
20260831153049 29 0 0.0 6.4 0.00 0.10 0.00 77 1017.6
20260831152523 30 46 3.2 6.4 0.00 0.10 0.00 77 1017.6
20260831152023 30 108 1.6 6.4 0.00 0.10 0.00 78 1017.5
20260831151548 30 63 3.2 8.0 0.00 0.10 0.00 77 1017.6
20260831151025 30 42 3.2 8.0 0.00 0.10 0.00 79 1017.6
20260831150526 30 24 1.6 6.4 0.00 0.10 0.00 77 1017.5
20260831150050 29 105 0.0 9.7 0.00 0.10 0.00 80 1017.4
20260831145526 29 54 3.2 9.7 0.00 0.10 0.00 79 1017.5
20260831145025 29 45 1.6 8.0 0.00 0.10 0.00 81 1017.4
20260831144559 28 190 1.6 8.0 0.00 0.10 0.00 79 1017.4
20260831144024 28 144 3.2 6.4 0.00 0.10 0.00 82 1017.3
20260831143524 28 284 0.0 8.0 0.00 0.10 0.00 80 1017.3
20260831143050 28 61 3.2 8.0 0.00 0.10 0.00 81 1017.3
20260831142524 28 26 1.6 6.4 0.00 0.10 0.00 84 1017.2
20260831142028 28 49 1.6 4.8 0.00 0.10 0.00 82 1017.1
20260831141555 28 122 1.6 3.2 0.00 0.10 0.00 84 1017.2
20260831141024 28 142 0.0 4.8 0.00 0.10 0.00 84 1017.2
20260831140528 28 0 0.0 4.8 0.00 0.10 0.00 85 1017.3
20260831140048 27 69 0.0 4.8 0.00 0.10 0.00 85 1017.2
20260831135525 27 321 0.0 3.2 0.00 0.10 0.00 86 1017.2
20260831135028 27 0 0.0 4.8 0.00 0.10 0.00 88 1017.2
20260831134545 27 136 0.0 4.8 0.00 0.10 0.00 89 1017.2
20260831134022 27 0 0.0 3.2 0.00 0.10 0.00 89 1017.1
20260831133527 27 0 0.0 4.8 0.00 0.10 0.00 90 1017.1
20260831133042 26 145 0.0 4.8 0.00 0.10 0.00 91 1017.1
20260831132522 26 151 1.6 4.8 0.00 0.10 0.00 92 1017.1
20260831132026 26 70 1.6 4.8 0.00 0.10 0.00 95 1017.1
20260831131540 26 84 1.6 3.2 0.00 0.10 0.00 96 1017.1
20260831131026 26 85 0.0 3.2 0.00 0.10 0.00 97 1017.2
20260831130524 25 0 0.0 4.8 0.00 0.10 0.00 97 1017.2
20260831130050 25 0 1.6 4.8 0.00 0.10 0.00 97 1017.3
20260831125523 25 286 0.0 4.8 0.00 0.10 0.00 97 1017.2
20260831125018 25 0 0.0 4.8 0.00 0.10 0.00 97 1017.1
20260831124540 25 45 0.0 3.2 0.00 0.10 0.00 97 1017.0
20260831124020 25 0 0.0 0.0 0.00 0.10 0.00 97 1017.0
20260831123524 25 0 0.0 0.0 0.00 0.10 0.00 97 1017.0
20260831123050 25 0 0.0 0.0 0.00 0.10 0.00 97 1016.8
20260831122525 24 0 0.0 0.0 0.00 0.10 0.00 97 1016.7
20260831122024 24 0 0.0 0.0 0.00 0.10 0.00 97 1016.7
20260831121544 23 0 0.0 0.0 0.00 0.10 0.00 97 1016.6
20260831121022 23 0 0.0 0.0 0.00 0.10 0.00 97 1016.6
20260831120525 23 0 0.0 0.0 0.00 0.10 0.00 97 1016.7
20260831120043 23 0 0.0 0.0 0.00 0.10 0.00 97 1016.6
20260831115519 23 0 0.0 0.0 0.00 0.10 0.00 97 1016.5
20260831115024 23 0 0.0 0.0 0.00 0.10 0.00 97 1016.4
20260831114550 22 0 0.0 0.0 0.00 0.10 0.00 97 1016.3
20260831114025 22 0 0.0 0.0 0.00 0.10 0.00 97 1016.3
20260831113527 22 0 0.0 0.0 0.00 0.10 0.00 97 1016.3
20260831113046 22 0 0.0 0.0 0.00 0.10 0.00 97 1016.3
20260831112524 22 0 0.0 0.0 0.00 0.10 0.00 97 1016.3
20260831112021 22 0 0.0 0.0 0.00 0.10 0.00 97 1016.2
20260831111552 22 0 0.0 0.0 0.00 0.10 0.00 97 1016.2
20260831111020 22 0 0.0 0.0 0.00 0.10 0.00 97 1016.1
20260831110521 22 0 0.0 0.0 0.00 0.10 0.00 97 1016.1
20260831110047 22 0 0.0 0.0 0.00 0.10 0.00 97 1016.0
20260831105525 22 0 0.0 0.0 0.00 0.10 0.00 97 1016.0
20260831105023 22 0 0.0 0.0 0.00 0.10 0.00 97 1016.0
20260831104555 22 0 0.0 0.0 0.00 0.10 0.00 97 1015.9
20260831104019 22 0 0.0 0.0 0.00 0.10 0.00 97 1015.9
20260831103521 22 0 0.0 0.0 0.00 0.10 0.00 97 1015.7
20260831103041 22 0 0.0 0.0 0.00 0.10 0.00 97 1015.7
20260831102524 22 0 0.0 0.0 0.00 0.10 0.00 97 1015.6
20260831102025 22 0 0.0 0.0 0.00 0.10 0.00 97 1015.6
20260831101548 22 0 0.0 0.0 0.00 0.10 0.00 97 1015.5
20260831101025 22 0 0.0 0.0 0.00 0.10 0.00 97 1015.4
20260831100526 22 0 0.0 0.0 0.00 0.10 0.00 97 1015.4
20260831100047 22 0 0.0 0.0 0.00 0.10 0.00 97 1015.4
20260831095523 22 0 0.0 0.0 0.00 0.10 0.00 97 1015.4